Location: Hademstorf
(52.7122°N, 9.6332°E)
Time: 14:03:00
(UTC+00:00)

Daily predictions for brighter satellites

Satellite Brightness Start Highest point End
(mag) Time Altitude Azimuth Time Altitude Azimuth Time Altitude Azimuth
Tsikada Rocket 4.0 19:43:44 10° N 19:49:55 72° ENE 19:56:03 10° SSE
Cosmos 1758 Rocket 4.2 19:46:31 10° N 19:50:41 40° ENE 19:54:51 10° SE
Meteor 1-27 4.2 19:45:34 10° S 19:51:11 73° E 19:56:45 10° NNE
ADEOS 3.8 19:46:42 10° S 19:51:54 74° WSW 19:57:09 10° NNW
Cosmos 2278 4.4 19:46:47 10° NNW 19:52:19 46° NE 19:57:48 10° ESE
Cosmos 2084 Rocket 4.1 19:49:53 10° NW 19:53:55 48° SW 19:58:01 10° SSE
USA 306 1.8 19:51:27 10° SW 19:54:39 52° SSE 19:56:52 10° E
Cosmos 1302 Rocket 4.0 19:49:59 10° S 19:55:05 64° ESE 20:00:14 10° NNE
SL-16 R/B 2.5 19:51:50 10° NNW 19:57:27 59° NE 20:03:03 10° SE
CZ-4B R/B 3.4 19:55:03 10° SE 19:58:07 33° ENE 20:01:17 10° N
Cosmos 2016 Rocket 4.0 19:54:38 10° S 20:00:54 84° E 20:07:07 10° NNE
Cosmos 724 4.3 19:54:58 10° SW 20:00:59 81° SE 20:06:55 10° NE
CZ-4C R/B 2.1 19:56:43 10° SW 20:01:07 77° NW 20:06:54 10° NE
SKYMED 3 4.3 19:57:57 10° NNE 20:01:56 86° ESE 20:05:53 10° SSW
SL-08 R/B 3.3 19:57:14 10° NNE 20:02:06 71° ESE 20:06:50 10° S
Helios 1A Rocket 3.3 20:07:27 10° N 20:10:31 48° WNW 20:13:34 10° SW
COSMOS 2406 3.7 20:05:55 10° S 20:11:13 40° ESE 20:16:33 10° NE
Cosmos 1743 4.0 20:09:57 10° NNW 20:12:37 29° W 20:15:16 10° SSW
Terra 3.0 20:09:07 10° SSW 20:13:32 41° W 20:18:00 10° NNW
Cosmos 1980 Rocket 3.7 20:09:03 10° NW 20:14:05 33° WSW 20:19:05 10° SSW
Meteor 1-20 Rocket 4.3 20:09:20 10° N 20:14:52 64° ENE 20:20:30 10° SSE
YAOGAN 11 4.2 20:10:34 10° NNE 20:14:58 63° ESE 20:19:24 10° S
Cosmos 1602 Rocket 4.2 20:11:04 10° N 20:15:09 40° ENE 20:18:56 12° SE
NOSS 3-3 (C) 3.9 20:11:11 10° SSW 20:16:14 50° SE 20:22:18 10° NE
CZ-4 R/B 3.8 20:14:17 10° SW 20:16:49 18° W 20:19:23 10° NW
USA 245 4.3 20:13:59 10° SSE 20:19:51 75° ENE 20:25:24 10° NNW
Cosmos 1933 3.9 20:19:19 11° SSE 20:22:42 36° E 20:26:13 10° NNE
Cosmos 2333 Rocket 2.3 20:17:07 10° NNW 20:22:51 76° ENE 20:28:05 13° SE
NOSS 3-4 (A) 3.9 20:21:05 10° NW 20:27:34 77° NE 20:34:49 12° SE
Cosmos 44 Rocket 4.4 20:23:03 10° WSW 20:28:04 54° NW 20:33:12 10° NE
NOSS 3-4 (C) 3.9 20:21:43 10° NW 20:28:13 77° NE 20:35:28 12° SE
Cosmos 2061 Rocket 4.0 20:25:04 10° S 20:31:19 89° E 20:37:40 10° N
Cosmos 1626 Rocket 3.6 20:27:30 10° NNW 20:31:52 80° W 20:36:15 10° S
Cosmos 1782 3.7 20:29:13 10° SSW 20:32:34 42° WNW 20:35:59 10° N
Cosmos 1805 3.6 20:29:57 10° N 20:33:01 37° ENE 20:35:11 17° SE
ATLAS 2AS CENTAUR R/B 4.2 20:31:52 10° W 20:38:18 40° NNW 20:44:40 10° NE
SPOT 3 Rocket 3.6 20:33:28 11° SSE 20:38:28 86° WSW 20:43:38 10° NNW
Cosmos 2098 Rocket 3.8 20:35:17 13° SSE 20:39:01 36° E 20:42:54 10° NNE
Cosmos 2360 Rocket 2.4 20:34:58 10° NNW 20:40:38 65° NE 20:45:21 15° SE
Cosmos 1607 4.2 20:35:19 10° SW 20:41:30 77° NW 20:47:51 10° NE
Ariane Rocket 3.0 20:37:06 13° SSE 20:41:39 81° ENE 20:46:45 10° NNW
Cosmos 220 Rocket 4.4 20:39:51 12° S 20:43:09 37° ESE 20:46:56 10° NE
Meteor 1-25 Rocket 4.2 20:41:17 10° NNW 20:47:01 84° ENE 20:51:51 14° SSE
Cosmos 1606 Rocket 4.3 20:49:16 17° SSE 20:52:02 36° E 20:55:59 10° NNE
Cosmos 2151 3.2 20:49:36 10° NNW 20:53:42 64° W 20:57:14 13° S
Helios 1B rocket 4.0 20:52:03 12° E 20:54:10 18° ENE 20:56:38 10° NNE
Okean 1 4.2 20:52:40 19° SE 20:54:15 27° E 20:57:19 10° NNE
Cosmos 2219 Rocket 2.6 20:49:09 10° NNW 20:54:43 55° NE 20:59:14 16° SE
Okean O Rocket 3.2 20:53:59 10° SSW 20:57:45 29° W 21:01:32 10° NNW
Cosmos 1726 Rocket 4.3 20:59:17 20° SE 21:01:18 31° E 21:04:54 10° NNE
Cosmos 1461 2.5 20:59:24 10° SSW 21:03:03 59° SE 21:06:41 10° NE
CZ-2C R/B 1.9 21:01:38 24° S 21:03:07 73° WSW 21:05:54 10° NNW
Cosmos 990 Rocket 4.4 20:59:03 10° NNW 21:04:08 55° ENE 21:07:49 18° SE
RESURS DK-1 4.3 21:02:34 10° NNW 21:05:38 21° NE 21:08:40 10° E
Okean 1-7 Rocket 3.6 21:03:21 10° N 21:07:50 80° ENE 21:10:52 20° SSE
BREEZE-M DEB (TANK) 4.1 20:58:54 10° WSW 21:11:16 57° S 21:16:13 10° E
Cosmos 2034 Rocket 4.4 21:07:11 18° SSE 21:11:44 48° E 21:17:47 10° NNE
Cosmos 2322 Rocket 2.2 21:06:03 10° NNW 21:11:44 79° WSW 21:15:45 20° SSE
CZ-4B R/B 3.9 21:07:48 14° S 21:11:45 54° WSW 21:16:32 10° NNW
USA 186 4.2 21:10:37 10° WSW 21:11:54 13° W 21:13:12 10° WNW
Cosmos 1437 Rocket 3.0 21:10:02 10° SSW 21:13:33 60° WNW 21:17:08 10° N
Cosmos 1544 Rocket 4.2 21:09:28 10° SSW 21:13:44 54° WNW 21:18:00 10° N
Cosmos 1777 Rocket 4.0 21:10:21 10° NNW 21:15:36 76° WSW 21:19:08 21° SSE
Cosmos 2082 Rocket 3.4 21:11:49 10° WSW 21:17:19 46° NW 21:22:49 10° NNE
USA 306 1.4 21:19:07 10° W 21:21:37 55° N 21:21:47 52° NNE
Cosmos 1503 Rocket 4.0 21:17:27 10° NNW 21:22:41 84° WSW 21:25:58 23° SSE
ISS -3.9 21:21:45 10° W 21:25:06 75° S 21:27:26 18° E
Nadezhda 4 Rocket 4.0 21:21:44 10° NNW 21:27:53 79° W 21:32:26 19° S
Cosmos 44 3.7 21:23:38 10° NW 21:29:04 68° NE 21:32:52 19° ESE
Cosmos 2237 Rocket 4.1 21:24:43 10° NNW 21:29:21 25° NE 21:33:57 10° E
Meteor 2-10 4.4 21:25:51 10° NNW 21:31:34 70° W 21:35:38 20° S
Cosmos-2242 3.7 21:30:18 26° SE 21:31:53 37° E 21:35:42 10° NNE
USA 290 2.2 21:33:39 37° S 21:34:36 56° ESE 21:37:42 10° NNE
NOSS 3-3 (A) 4.4 21:30:18 10° WSW 21:35:41 61° NW 21:42:18 10° NE
Cosmos 1707 3.0 21:36:03 29° E 21:36:10 29° E 21:38:43 10° NNE
Cosmos 1354 Rocket 4.0 21:31:02 10° NNW 21:36:19 89° ENE 21:39:24 25° SSE
COSMOS 2428 3.5 21:33:01 10° NNW 21:38:29 44° NE 21:42:51 15° ESE
SL-16 R/B 3.5 21:36:20 10° NW 21:41:15 31° WSW 21:45:09 15° SSW
Cosmos 1825 Rocket 3.9 21:37:55 10° NNW 21:42:12 58° W 21:44:44 23° SSW
Cosmos 2195 Rocket 4.5 21:39:49 10° NNW 21:46:06 84° W 21:50:09 23° S
Cosmos 372 Rocket 4.3 21:42:30 10° NNW 21:47:34 57° ENE 21:50:33 24° SE
Cosmos 1953 Rocket 3.5 21:43:12 10° NNW 21:47:34 84° W 21:49:43 30° S
CZ-4C R/B 4.0 21:45:40 10° WNW 21:50:13 33° NNW 21:55:59 10° NE
Cosmos 2026 Rocket 4.0 21:44:25 10° N 21:50:50 90° WNW 21:54:55 24° S
Cosmos 1271 Rocket 3.9 21:52:42 21° E 21:53:01 22° E 21:55:40 10° NE
COSMOS 2406 4.2 21:49:55 10° SW 21:55:27 48° NW 22:01:02 10° NNE
Cosmos 2221 3.9 21:54:54 20° ESE 21:56:02 22° E 21:59:18 10° NE
Aureole 1 Rocket 3.9 21:51:18 10° NNW 21:56:51 86° ENE 22:00:52 25° SSE
Cosmos 2058 Rocket 3.1 21:57:50 33° SSE 21:59:37 60° E 22:03:54 10° NNE
Cosmos 1766 2.7 21:58:02 10° NNW 22:01:16 81° W 22:02:02 49° S
Cosmos 540 Rocket 3.4 21:58:20 23° SSW 22:01:33 74° ESE 22:06:42 10° NNE
Cosmos 1937 Rocket 4.2 22:00:35 10° NNW 22:05:34 47° ENE 22:08:43 21° ESE
Cosmos 1842 3.5 22:05:49 34° ESE 22:06:01 34° E 22:08:56 10° NNE
Cosmos 2333 Rocket 3.9 22:02:11 10° NW 22:06:34 23° WSW 22:10:06 13° SSW
Spot 4 4.1 22:07:43 29° SE 22:10:03 61° ENE 22:14:48 10° N
Geosat 3.9 22:06:01 10° NNE 22:11:03 84° ESE 22:14:39 19° SSW
Cosmos 468 Rocket 4.2 22:10:44 30° S 22:13:09 55° ESE 22:18:18 10° NNE
ARIANE 5 R/B 2.8 22:11:52 32° SE 22:13:48 65° ENE 22:18:15 10° N
ALOS 2 3.0 22:13:10 30° SE 22:15:05 55° ENE 22:19:24 10° N
Cosmos 1833 4.1 22:11:32 17° SSW 22:15:58 88° ESE 22:21:39 10° NNE
Cosmos 2297 Rocket 3.8 22:17:12 17° ESE 22:18:37 19° E 22:22:26 10° ENE
Cosmos 1536 2.7 22:16:42 10° NNW 22:20:21 64° W 22:21:25 41° SSW
Meteor 2-6 Rocket 4.5 22:18:01 29° S 22:21:07 64° E 22:27:01 10° NNE
Cosmos 2360 Rocket 3.5 22:19:29 10° NW 22:24:13 28° WSW 22:27:05 19° SSW
Cosmos 2322 3.7 22:18:29 10° NNW 22:24:14 88° ENE 22:27:17 29° SSE
Helios 1A 3.2 22:21:04 10° N 22:24:56 59° WNW 22:26:53 27° SW
Helios 1B rocket 2.6 22:25:59 37° SW 22:26:52 47° W 22:30:16 10° NNW
CSL-04 DEB 4.4 22:27:08 40° SSW 22:28:04 54° WSW 22:31:39 10° NNW
USA 234 3.8 22:23:49 10° ENE 22:29:46 35° SE 22:32:06 28° S
ATLAS 2AS CENTAUR R/B 4.4 22:24:41 10° WNW 22:30:49 34° N 22:36:55 10° ENE
PSLV R/B 4.1 22:29:26 10° NNE 22:33:31 43° E 22:34:43 34° SE
Cosmos 1092 Rocket 4.4 22:30:44 10° NNW 22:36:41 53° W 22:40:16 24° SSW
Cosmos 1898 Rocket 3.4 22:32:13 10° NNW 22:37:26 83° WSW 22:39:45 34° SSE
Cosmos 2219 Rocket 3.2 22:33:25 10° NW 22:38:27 33° WSW 22:40:55 23° SSW
SeaSat 1 3.8 22:34:43 10° ESE 22:39:06 35° NE 22:43:33 10° NNW
Cosmos 1470 2.2 22:36:31 10° NNW 22:39:50 74° W 22:40:17 60° SSW
Cosmos 1763 Rocket 4.1 22:35:26 14° SW 22:39:52 56° WNW 22:45:05 10° NNE
RESURS DK-1 2.2 22:39:27 10° NW 22:43:25 74° WSW 22:44:27 47° SSE
TSX-5 3.9 22:46:03 10° NW 22:48:57 39° WSW 22:48:57 39° WSW
Cosmos 1975 2.5 22:47:09 10° NNW 22:50:50 75° W 22:51:35 53° SSW
Cosmos 2322 Rocket 4.2 22:51:34 10° WNW 22:54:52 16° W 22:57:32 12° SW
MetOp-A 3.9 22:53:43 33° SSE 22:55:54 72° ENE 23:00:34 10° NNW
NOSS 0 Rocket 3.9 22:50:40 10° NW 22:56:51 80° WSW 23:00:06 30° SSE
NOSS 8 (H) 4.1 22:55:14 10° NW 22:58:06 74° NE 22:58:24 65° E
Lacrosse 4 Rocket 3.3 23:01:08 16° ESE 23:01:08 16° ESE 23:03:34 10° ENE
SL-16 R/B 3.9 22:56:07 10° NNW 23:01:08 31° NE 23:06:09 10° ESE
ISS -2.4 22:58:32 10° W 23:00:22 26° WSW 23:00:22 26° WSW
SAR-Lupe-2 3.4 23:02:14 56° SW 23:02:35 61° WSW 23:05:54 10° NNW
Meteor 2-9 Rocket 4.4 23:02:49 10° NNW 23:08:05 57° W 23:10:28 32° SSW
Cosmos 1707 4.4 23:07:32 14° W 23:08:30 15° WNW 23:10:18 10° NNW
CZ-2C R/B 4.1 23:05:42 10° N 23:10:03 55° WNW 23:12:13 28° SW
Cosmos 841 Rocket 3.4 23:09:01 34° SSW 23:11:20 81° ESE 23:16:36 10° NNE
Cosmos 1812 Rocket 3.5 23:10:37 42° S 23:12:04 88° ESE 23:16:33 10° NNE
Intercosmos 24 3.8 23:09:16 10° N 23:13:21 72° ENE 23:14:16 47° SSE
Cosmos 2237 Rocket 2.2 23:08:31 10° NNW 23:14:15 84° ENE 23:17:27 27° SE
Cosmos 2279 Rocket 4.3 23:14:25 24° SSW 23:18:10 60° WNW 23:24:23 10° N
Cosmos 1980 3.6 23:12:36 10° NNW 23:18:18 87° WSW 23:21:16 30° SSE
Meteor 1-11 Rocket 3.8 23:13:11 10° NNW 23:18:52 70° W 23:21:21 34° S
CZ-2C R/B 2.6 23:18:46 32° SSE 23:21:17 84° ENE 23:26:31 10° NNW
NOSS 8 (E) 3.9 23:18:46 10° NW 23:21:42 86° NE 23:21:51 78° ESE
COSMOS 2428 3.2 23:17:23 10° NW 23:22:45 43° WSW 23:24:48 31° SSW
ACS3 Solar Sail 2.9 23:19:57 10° NNE 23:25:16 32° E 23:28:30 20° SE
Meteor 2-4 Rocket 4.1 23:23:24 30° SSE 23:25:46 51° E 23:31:07 10° NNE
Meteor 1-10 Rocket 4.3 23:23:16 31° SSW 23:26:14 85° WNW 23:32:13 10° NNE
Cosmos 1271 Rocket 3.8 23:26:03 25° WSW 23:27:04 30° WNW 23:30:08 10° N
Cosmos 2227 Rocket 3.5 23:26:17 21° SE 23:28:22 27° ESE 23:33:02 10° NE
Meteor 2-20 4.4 23:29:37 31° S 23:32:43 89° ESE 23:38:50 10° NNE
Cosmos 2221 3.2 23:31:11 30° SW 23:32:47 44° WNW 23:36:49 10° N
Cosmos 192 4.5 23:30:34 10° NNW 23:35:31 72° ENE 23:38:13 27° SE
NOSS 8 (F) 3.9 23:34:08 10° NW 23:36:57 75° WSW 23:36:57 75° WSW
GP-B 3.3 23:32:53 10° N 23:37:12 59° W 23:38:41 37° SW
Cosmos 1238 Rocket 2.9 23:37:44 46° SSE 23:38:48 70° E 23:43:08 10° NNE
BREEZE-M DEB (TANK) 4.4 23:24:45 10° SW 23:39:09 40° SSE 23:43:56 10° E
CZ-4C R/B 4.3 23:34:48 10° NW 23:40:00 33° NNE 23:46:34 10° ENE
Cosmos 1842 Rocket 4.3 23:38:31 31° SE 23:40:03 43° E 23:44:14 10° NNE
Cosmos 2263 Rocket 3.8 23:37:50 17° SE 23:40:08 21° ESE 23:44:15 10° NE
Meteor 1-27 Rocket 3.7 23:39:18 32° S 23:42:08 86° E 23:47:55 10° NNE
Cosmos 2266 Rocket 4.4 23:39:06 10° NNW 23:44:53 50° W 23:47:46 28° SSW
Cosmos 1937 Rocket 4.4 23:42:44 10° NW 23:47:16 32° WSW 23:48:46 27° SW
ARIANE 5 R/B 4.4 23:49:14 17° WSW 23:50:33 19° W 23:53:41 10° NW
Sich 1 3.4 23:46:45 10° N 23:50:52 55° ENE 23:52:43 29° SE
ALOS 2 4.2 23:50:33 19° WSW 23:51:45 21° W 23:55:07 10° NW
Landsat 5 3.4 23:49:32 10° NNE 23:53:40 72° ESE 23:54:53 43° S
